Weather History for Covington, KY

Change the Weather History Date:

Saturday, June 1, 2013

  Actual Average Record
Temperature  
Mean Temperature 74 °F 68 °F  
Max Temperature 79 °F 78 °F 97 °F (1934)
Min Temperature 68 °F 58 °F 39 °F (1889)
Degree Days  
Heating Degree Days 0 2  
Month to date heating degree days 0 2  
Since 1 June heating degree days 0 2  
Since 1 July heating degree days 4980 4962  
Cooling Degree Days 9 5  
Month to date cooling degree days 9 5  
Year to date cooling degree days 148 99  
Since 1 June cooling degree days 9 5  
Growing Degree Days 24 (Base 50)    
Moisture  
Dew Point 67 °F    
Average Humidity 80    
Maximum Humidity 93    
Minimum Humidity 67    
Precipitation  
Precipitation 0.02 in 0.15 in 1.06 in (1915)
Month to date precipitation 0.02 0.15  
Year to date precipitation 17.90 18.74  
Snow  
Snow 0.00 in 0.00 in 0.00 in ()
Month to date snowfall 0.0 0.0  
Since 1 June snowfall 0.0 0.0  
Since 1 July snowfall 25.2 22.1  
Snow Depth 0.00 in    
Sea Level Pressure  
Sea Level Pressure 29.87 in    
Wind  
Wind Speed 11 mph (SSW)    
Max Wind Speed 24 mph    
Max Gust Speed 33 mph    
Visibility 10 miles    
Events Rain    
T = Trace of Precipitation, MM = Missing Value Source: NWS Daily Summary

Daily Weather History Graph

Daily Weather History Graph

Search for Another Location

Airport:

Trip Planner

Search our weather history database for the weather conditions in past years. The results will help you decide how hot, cold, wet, or windy it might be!

Date:

Astronomy

Jun. 01, 2013 Rise Set
Actual Time 6:14 AM EDT 8:58 PM EDT
Civil Twilight 5:43 AM EDT 9:30 PM EDT
Nautical Twilight 5:03 AM EDT 10:09 PM EDT
Astronomical Twilight 4:19 AM EDT 10:54 PM EDT
Moon 2:07 AM EDT (6/1) 2:30 PM EDT (6/1)
Length of Visible Light 15h 47m
Length of Day
14h 44m
Last Quarter, 41% of the Moon is Illuminated
Jun 1
Last Quarter
Jun 8
New
Jun 16
First Quarter
Jun 23
Full
Jun 30
Last Quarter

Hourly Weather History & Observations

Time (EDT) Temp. Dew Point Humidity Pressure Visibility Wind Dir Wind Speed Gust Speed Precip Events Conditions
1:52 AM 71.1 °F 66.9 °F 87% 29.94 in 10.0 mi South 10.4 mph - N/A   Scattered Clouds
2:52 AM 72.0 °F 66.0 °F 81% 29.93 in 10.0 mi South 11.5 mph - N/A   Mostly Cloudy
3:52 AM 71.1 °F 66.0 °F 84% 29.91 in 10.0 mi South 10.4 mph - N/A   Mostly Cloudy
4:52 AM 70.0 °F 64.9 °F 84% 29.89 in 10.0 mi South 11.5 mph - N/A   Mostly Cloudy
5:52 AM 70.0 °F 64.9 °F 84% 29.87 in 10.0 mi South 11.5 mph - N/A   Scattered Clouds
6:52 AM 71.1 °F 64.9 °F 81% 29.89 in 10.0 mi South 11.5 mph 18.4 mph N/A   Mostly Cloudy
7:31 AM 71.6 °F 64.4 °F 78% 29.94 in 10.0 mi SSW 8.1 mph - N/A   Overcast
7:52 AM 71.1 °F 64.9 °F 81% 29.91 in 10.0 mi SSW 6.9 mph - N/A   Overcast
8:52 AM 70.0 °F 66.0 °F 87% 29.91 in 10.0 mi West 9.2 mph - N/A   Overcast
9:52 AM 70.0 °F 64.9 °F 84% 29.90 in 10.0 mi Variable 5.8 mph - N/A   Overcast
10:52 AM 73.0 °F 66.9 °F 81% 29.90 in 10.0 mi South 11.5 mph - N/A   Overcast
11:52 AM 72.0 °F 69.1 °F 91% 29.91 in 10.0 mi SSW 11.5 mph 18.4 mph 0.00 in Rain Light Rain
12:52 PM 73.9 °F 66.9 °F 79% 29.90 in 10.0 mi SSW 13.8 mph 23.0 mph 0.00 in   Mostly Cloudy
1:52 PM 78.1 °F 66.0 °F 66% 29.89 in 10.0 mi SSW 13.8 mph 20.7 mph N/A   Mostly Cloudy
2:52 PM 79.0 °F 66.9 °F 66% 29.88 in 10.0 mi SSW 12.7 mph - N/A   Mostly Cloudy
3:52 PM 78.1 °F 66.9 °F 68% 29.86 in 10.0 mi SSW 16.1 mph 31.1 mph N/A   Mostly Cloudy
4:52 PM 77.0 °F 66.9 °F 71% 29.85 in 10.0 mi SSW 13.8 mph 25.3 mph N/A   Mostly Cloudy
5:52 PM 77.0 °F 68.0 °F 74% 29.83 in 10.0 mi SSW 13.8 mph 23.0 mph N/A   Mostly Cloudy
6:52 PM 75.0 °F 70.0 °F 84% 29.80 in 10.0 mi South 10.4 mph - 0.00 in   Mostly Cloudy
7:52 PM 75.9 °F 69.1 °F 79% 29.79 in 10.0 mi South 11.5 mph - N/A   Overcast
8:52 PM 75.0 °F 69.1 °F 82% 29.80 in 10.0 mi SW 8.1 mph - N/A   Mostly Cloudy
9:52 PM 72.0 °F 70.0 °F 93% 29.80 in 10.0 mi SSW 8.1 mph - 0.02 in   Mostly Cloudy
10:52 PM 71.1 °F 70.0 °F 96% 29.82 in 9.0 mi SSW 8.1 mph - N/A   Mostly Cloudy
11:52 PM 70.0 °F 66.9 °F 90% 29.83 in 10.0 mi SW 11.5 mph - N/A   Scattered Clouds